Wind_Speed
7 8 9 9 8 5 5 6 8 10 8 13 11 9 10 14 13 11 11 9 10 9 8 6 9 9 11 12 14 14 14 15 15 15 14 13 13 13 13 13 15 12 13 14 12 15 13 11 12
6 7 6 10 4 5 6 7 11 13 11 13 10 12 10 13 12 10 12 11 11 9 8 7 7 8 10 12 13 14 13 13 13 13 13 14 14 13 13 13 14 12 13 13 13 14 13 12 12
6 5 6 6 7 12 10 8 12 10 14 14 14 13 11 12 12 10 11 13 11 9 8 7 8 8 10 11 11 12 12 12 11 12 10 11 14 12 12 12 12 13 13 14 15 15 14 14 13
6 8 7 6 6 13 14 11 11 11 11 13 11 14 12 12 12 10 12 12 11 9 9 8 8 9 9 11 12 12 12 11 11 10 9 9 11 11 11 10 9 15 13 13 19 16 15 13 12
5 7 8 7 11 10 15 14 13 14 16 15 13 13 13 12 12 10 11 11 10 10 8 9 10 10 11 11 12 12 11 10 10 10 10 10 10 10 10 7 8 15 17 18 16 14 14 13 12
4 6 15 5 20 14 16 14 14 15 17 17 15 15 15 12 12 11 10 10 10 9 8 9 10 12 14 14 13 13 11 9 9 9 9 7 10 10 9 8 11 13 15 15 15 14 11 12 12
3 6 14 15 14 20 16 17 18 17 18 17 16 15 16 13 13 11 11 9 10 9 8 9 11 12 14 15 14 13 13 11 10 9 9 10 10 14 15 15 14 14 13 13 13 12 11 10 10
4 4 9 9 13 24 20 21 21 17 18 18 17 16 19 16 14 12 11 10 9 9 8 9 10 12 13 13 13 13 12 11 10 9 9 10 13 16 16 14 14 14 13 12 11 11 9 9 9
4 3 8 10 6 25 27 22 21 18 18 19 16 14 16 19 14 13 11 10 9 8 8 8 10 11 12 11 12 12 12 11 10 9 9 9 12 14 15 15 14 14 13 12 11 11 11 12 13
4 3 7 7 9 10 29 24 24 21 20 19 16 14 12 19 13 12 11 10 9 9 8 9 9 11 11 11 11 11 11 10 9 10 10 14 16 13 14 16 15 14 13 12 10 12 15 15 18
4 4 4 9 6 8 18 27 27 26 23 25 23 17 11 16 14 13 11 9 8 9 9 10 10 13 15 13 14 13 12 12 11 10 11 12 12 12 13 19 17 15 13 12 12 15 16 18 19
4 5 5 1 2 9 28 26 27 25 22 22 20 23 16 15 14 13 9 9 9 10 9 11 12 13 15 15 14 14 13 12 12 11 11 12 13 12 16 22 18 16 14 13 14 16 16 15 17
6 6 5 9 10 19 26 23 23 24 22 22 20 18 18 15 15 14 11 8 8 10 10 12 14 14 14 15 15 13 13 12 12 12 13 14 14 15 21 21 17 16 14 16 15 15 15 16 17
7 6 4 2 9 21 30 20 22 23 23 23 21 19 17 17 14 14 12 9 8 10 10 10 12 15 15 15 15 15 14 13 13 13 15 16 17 19 21 19 17 15 14 16 16 15 15 16 17
9 5 1 7 16 28 25 15 21 26 24 22 21 19 16 16 13 13 12 10 7 8 11 10 10 12 15 17 17 16 15 15 15 15 17 19 19 19 20 19 16 15 14 16 16 16 17 16 16
10 6 3 4 12 17 19 17 23 24 23 21 21 19 16 16 15 13 12 10 7 6 10 10 11 11 13 16 17 14 13 15 16 17 18 18 19 19 20 19 16 15 16 17 16 16 17 16 16
13 9 6 3 5 7 11 17 26 24 17 21 21 21 17 15 15 14 12 10 8 6 9 12 12 12 12 12 14 13 13 15 16 16 16 20 20 20 19 17 14 13 15 16 16 16 16 15 15
16 13 9 9 9 5 9 10 10 15 19 25 23 21 20 18 17 17 14 10 10 7 10 12 11 10 11 12 13 15 14 15 16 17 17 18 18 19 17 15 12 12 14 14 15 14 14 14 14
19 18 17 10 11 6 8 8 12 14 19 23 24 23 23 20 18 18 16 12 11 9 9 11 12 12 12 11 13 15 14 14 16 17 17 17 17 17 15 14 13 10 14 14 14 13 13 13 12
22 20 20 13 13 16 9 13 2 19 22 25 25 25 24 22 19 19 17 15 13 12 10 10 13 12 11 13 13 16 15 14 15 17 15 15 14 14 13 11 11 11 13 14 14 13 12 13 13
24 21 22 16 16 14 8 10 8 11 20 23 27 29 26 24 22 21 20 19 17 14 12 12 12 13 12 12 13 14 15 15 16 16 16 15 14 12 11 10 10 13 15 15 14 12 12 12 12
26 27 24 21 16 13 10 11 12 11 27 26 27 26 25 26 26 25 23 22 20 17 16 13 14 12 12 12 12 14 14 15 16 15 15 14 14 13 11 10 11 15 17 15 14 12 12 11 12
33 28 27 24 21 17 13 12 12 18 20 33 28 27 27 27 27 26 25 24 23 20 17 15 13 14 14 13 11 12 13 13 15 16 14 13 13 12 11 11 12 15 16 14 13 12 12 10 10
32 30 29 26 22 18 16 14 20 15 29 36 31 29 29 28 28 29 28 26 24 21 21 19 16 14 15 14 13 11 10 12 13 15 14 14 13 12 11 10 11 12 14 12 12 10 9 9 7
38 32 29 28 25 14 20 18 13 19 11 15 33 35 28 29 28 28 29 26 24 24 22 20 18 17 16 15 14 11 11 10 10 11 13 14 13 14 13 12 11 11 12 11 11 11 10 8 7
41 38 32 28 18 18 21 19 14 10 9 9 6 18 33 32 31 28 25 26 27 25 24 22 20 19 17 16 14 13 11 9 10 10 10 11 12 11 12 12 12 11 11 11 11 10 10 10 8
43 42 32 26 25 20 21 22 17 14 11 11 12 12 30 37 33 28 25 25 27 26 25 24 23 20 19 17 15 14 12 11 10 10 9 8 9 10 9 11 12 12 11 11 11 11 11 11 11
41 41 40 35 22 21 23 23 18 15 11 8 13 11 27 38 33 29 27 26 27 27 26 25 24 24 21 20 19 17 14 14 13 12 11 9 8 8 9 9 10 10 11 11 11 12 13 13 13
45 42 43 27 28 21 23 18 24 17 14 11 13 11 19 18 22 25 30 29 29 29 27 27 26 27 26 24 21 20 19 19 16 16 14 12 11 10 11 11 11 11 11 11 11 12 14 14 15
41 39 40 39 30 33 25 23 24 18 16 15 20 21 16 15 20 26 30 33 34 33 30 31 28 29 29 28 25 24 22 22 21 19 18 17 15 14 13 13 12 10 11 12 11 12 13 15 16
Wind_Direction
9 2 16 349 1 63 107 156 155 139 139 130 125 121 114 108 106 103 97 91 89 83 86 88 101 121 127 123 123 121 115 112 114 115 119 121 118 111 109 107 93 102 103 101 87 80 93 98 95
357 359 359 304 255 159 148 183 156 145 149 137 130 122 124 109 108 104 103 97 91 91 89 92 110 124 129 131 130 126 121 115 115 116 117 128 126 120 115 112 118 119 113 112 111 104 101 100 99
345 359 353 3 186 176 184 169 158 152 152 149 140 130 125 115 116 116 105 103 98 93 91 98 115 129 136 140 138 131 124 121 120 119 124 133 123 122 118 113 116 117 121 115 106 99 98 102 104
338 348 349 84 150 173 181 167 160 153 164 146 138 127 122 118 119 122 110 108 107 101 99 108 115 126 139 142 137 133 132 132 125 124 129 116 119 127 123 124 134 133 129 123 109 106 98 98 105
340 354 299 181 145 155 170 167 161 162 160 153 144 130 121 120 119 118 112 111 108 101 102 107 116 120 130 134 134 132 130 129 124 123 123 132 127 123 122 131 106 102 95 99 103 104 105 106 108
333 343 341 249 187 159 172 160 166 167 161 156 148 131 121 125 119 121 112 113 108 99 93 105 115 116 122 128 132 130 126 125 120 122 125 124 118 117 133 138 112 104 105 108 110 109 111 111 112
274 339 359 329 183 183 178 168 168 167 164 153 146 138 128 130 122 120 119 118 109 99 100 109 119 121 124 125 127 124 126 123 121 121 123 125 120 113 118 120 121 116 114 115 112 109 107 106 110
230 320 352 7 186 174 176 170 162 168 164 155 154 154 140 131 127 125 120 116 108 98 100 119 126 124 128 130 128 126 122 121 124 125 129 132 140 122 117 116 119 122 118 114 111 105 103 100 104
236 321 337 346 335 195 163 171 159 157 168 162 160 156 143 127 132 129 117 114 104 104 103 122 132 127 131 136 132 127 119 117 120 120 126 151 152 132 128 123 121 125 122 118 111 105 96 96 101
220 282 314 332 332 236 150 168 155 169 173 158 160 160 143 121 126 125 117 109 105 104 98 125 134 132 123 132 134 129 122 117 113 115 115 101 125 135 134 130 125 127 118 117 108 103 93 94 93
201 240 293 324 21 172 170 168 165 169 172 163 160 154 143 129 132 130 121 115 109 106 108 118 127 131 133 129 134 131 125 122 112 116 118 109 119 127 138 140 136 127 113 111 103 100 98 97 92
191 250 287 321 115 203 166 168 168 168 169 158 158 141 152 131 129 128 122 113 111 108 114 108 115 122 133 129 133 132 124 123 117 118 115 110 112 107 129 141 141 125 114 109 113 107 102 96 96
195 249 311 287 128 151 169 166 171 167 166 160 157 140 140 138 137 134 124 127 119 108 108 109 108 113 127 128 128 128 122 115 113 116 118 113 110 110 126 134 134 129 120 117 115 109 101 99 100
200 245 340 270 202 165 169 181 167 167 167 165 158 152 155 144 143 135 129 132 131 120 119 111 105 113 122 125 124 122 117 110 111 116 121 121 123 124 127 132 130 125 124 127 121 111 102 104 101
202 218 65 279 168 159 162 166 168 170 171 169 166 165 166 146 147 139 135 130 134 131 121 125 108 112 122 128 128 121 113 108 113 114 127 134 132 133 133 133 132 130 132 131 125 115 107 108 103
205 196 150 215 154 164 150 152 169 169 172 176 175 172 173 155 152 147 141 133 144 146 124 135 120 114 122 126 134 128 120 110 111 120 116 137 137 139 141 141 137 135 136 133 127 117 113 114 108
198 196 169 213 236 127 137 157 167 164 183 190 185 176 173 168 158 154 149 140 150 158 133 139 136 125 121 123 134 135 129 120 115 123 129 133 136 138 141 141 136 136 137 133 129 121 118 120 115
201 193 190 213 220 221 166 169 205 212 174 179 187 182 176 176 168 163 156 155 156 164 151 141 142 139 130 122 135 135 131 123 121 123 132 139 138 142 143 143 138 137 139 138 134 127 124 130 125
203 197 197 212 210 224 209 214 221 223 176 190 190 187 181 179 178 171 162 162 168 162 163 153 146 145 133 131 142 145 140 131 126 130 137 144 146 146 148 147 141 143 146 146 142 132 126 131 131
208 206 206 202 208 224 210 212 333 220 199 195 191 191 186 185 184 176 172 171 176 169 173 168 154 149 143 140 143 147 152 143 133 132 141 145 149 151 150 150 147 148 155 151 146 135 133 133 137
207 212 218 212 215 210 249 263 271 228 194 202 196 195 186 189 186 184 181 180 178 179 179 174 163 158 146 139 141 145 153 153 143 138 142 143 144 149 152 156 159 156 160 156 150 144 135 135 143
210 212 218 219 217 221 220 254 257 251 213 205 201 201 190 189 189 188 184 186 183 184 187 179 181 170 160 153 152 149 148 156 158 152 149 146 144 147 151 148 152 155 159 159 154 144 134 141 145
212 211 218 219 217 225 227 262 249 230 229 210 200 195 192 192 192 192 192 190 188 186 193 189 189 185 174 166 167 161 153 155 167 162 164 163 158 156 157 153 153 152 156 163 161 154 146 139 143
205 213 219 222 219 221 232 237 234 222 208 201 187 203 193 197 198 195 194 195 194 190 193 196 196 195 188 176 179 173 171 157 165 171 168 172 173 171 168 166 162 162 163 168 171 171 168 154 152
208 209 221 224 223 218 225 237 244 258 283 214 196 199 200 198 205 204 199 196 201 198 198 201 202 204 203 191 190 189 183 176 166 168 172 170 175 182 182 181 170 177 180 179 179 186 188 182 186
212 209 215 228 228 229 229 234 234 240 246 280 277 218 198 200 203 205 203 201 205 206 206 208 210 210 213 210 202 199 201 198 185 177 183 185 172 181 189 192 190 188 190 193 196 196 194 203 203
214 214 207 202 220 212 243 230 225 238 229 225 248 251 219 202 203 201 206 209 211 212 211 212 216 216 218 215 220 208 208 210 209 198 195 202 183 181 188 201 204 200 200 199 202 206 208 210 214
216 219 218 214 216 219 241 229 237 226 213 212 223 244 220 209 198 200 205 211 216 218 220 216 220 219 221 221 222 221 216 215 219 214 212 212 214 203 191 199 209 212 215 217 213 214 212 217 223
217 217 217 216 219 223 227 252 228 229 230 232 218 203 211 198 193 206 210 212 219 220 223 222 221 223 219 219 221 227 222 220 218 220 222 221 221 220 212 211 211 216 222 231 228 227 227 225 228
215 219 224 220 222 207 202 231 238 214 216 218 200 199 193 212 216 218 214 216 215 221 225 220 241 228 224 220 219 223 227 227 227 225 222 219 223 231 233 227 227 222 223 225 228 235 235 232 235
Height
5894 5893 5894 5893 5898 5896 5896 5897 5897 5898 5900 5899 5900 5902 5902 5900 5900 5903 5900 5900 5900 5900 5899 5899 5900 5901 5902 5902 5902 5902 5902 5903 5903 5905 5906 5905 5905 5905 5905 5906 5906 5907 5907 5906 5905 5906 5907 5910 5910
5894 5893 5894 5894 5895 5896 5897 5897 5898 5898 5900 5901 5902 5902 5904 5903 5902 5902 5902 5903 5903 5903 5902 5901 5901 5902 5902 5902 5903 5903 5904 5905 5905 5907 5907 5908 5908 5908 5908 5908 5908 5909 5909 5909 5910 5911 5912 5913 5913
5894 5894 5894 5892 5893 5896 5897 5898 5899 5900 5901 5903 5903 5903 5905 5904 5904 5904 5905 5905 5905 5905 5904 5903 5903 5903 5904 5904 5905 5906 5907 5907 5908 5908 5908 5907 5909 5909 5910 5910 5910 5911 5912 5912 5912 5913 5914 5914 5914
5894 5894 5895 5893 5893 5896 5898 5899 5900 5901 5904 5905 5906 5905 5906 5906 5906 5906 5906 5906 5906 5907 5906 5906 5906 5905 5905 5906 5908 5909 5909 5909 5910 5910 5910 5910 5911 5911 5912 5912 5911 5911 5913 5914 5914 5916 5916 5916 5917
5895 5895 5893 5894 5896 5897 5898 5899 5901 5902 5904 5905 5906 5907 5908 5909 5908 5908 5908 5907 5908 5908 5908 5908 5907 5907 5907 5908 5909 5910 5910 5911 5911 5912 5912 5912 5912 5913 5914 5914 5914 5913 5915 5916 5917 5918 5918 5918 5919
5895 5894 5893 5892 5895 5896 5898 5899 5902 5903 5904 5906 5907 5908 5909 5910 5910 5910 5910 5910 5909 5910 5910 5910 5910 5910 5910 5910 5911 5912 5912 5912 5913 5913 5913 5913 5913 5914 5915 5916 5917 5917 5918 5918 5919 5919 5920 5920 5921
5893 5894 5892 5892 5893 5896 5898 5898 5900 5903 5905 5907 5909 5909 5909 5910 5910 5911 5911 5912 5911 5911 5911 5911 5912 5912 5912 5912 5913 5914 5914 5914 5915 5915 5916 5916 5917 5917 5917 5918 5919 5920 5921 5921 5922 5921 5922 5922 5922
5893 5894 5894 5893 5894 5895 5896 5898 5900 5903 5906 5908 5908 5909 5909 5910 5911 5912 5913 5913 5913 5913 5913 5913 5913 5913 5914 5914 5915 5915 5915 5916 5916 5917 5918 5918 5918 5919 5920 5921 5922 5923 5924 5924 5924 5924 5924 5924 5924
5893 5895 5894 5892 5887 5890 5895 5899 5900 5903 5906 5907 5909 5911 5911 5909 5912 5913 5914 5914 5915 5915 5914 5914 5915 5915 5915 5915 5916 5916 5916 5917 5918 5919 5919 5919 5920 5921 5921 5923 5925 5926 5927 5928 5928 5927 5927 5927 5927
5892 5893 5893 5891 5890 5890 5895 5898 5898 5903 5905 5907 5910 5911 5912 5910 5914 5915 5915 5915 5916 5917 5916 5915 5917 5917 5917 5917 5917 5918 5918 5918 5919 5920 5921 5920 5921 5922 5923 5925 5927 5928 5929 5930 5930 5930 5930 5931 5931
5891 5892 5891 5889 5888 5889 5891 5896 5898 5901 5904 5905 5908 5910 5914 5913 5915 5916 5916 5917 5918 5918 5918 5918 5918 5919 5918 5918 5919 5920 5920 5920 5920 5922 5923 5923 5923 5924 5924 5926 5928 5929 5931 5933 5934 5934 5935 5935 5936
5891 5889 5889 5887 5887 5886 5889 5895 5899 5901 5906 5907 5910 5908 5913 5915 5916 5917 5919 5919 5920 5920 5920 5920 5920 5921 5920 5920 5921 5922 5922 5921 5921 5923 5924 5925 5925 5925 5925 5928 5930 5933 5934 5936 5937 5938 5939 5940 5940
5889 5888 5887 5887 5887 5886 5891 5895 5900 5903 5905 5908 5911 5911 5914 5916 5917 5917 5919 5920 5922 5922 5922 5922 5921 5922 5923 5924 5924 5924 5924 5923 5923 5924 5925 5927 5928 5928 5929 5932 5934 5936 5938 5939 5940 5942 5943 5944 5945
5887 5887 5887 5886 5885 5887 5890 5895 5900 5903 5905 5909 5910 5913 5915 5916 5918 5918 5920 5922 5923 5924 5924 5924 5924 5924 5924 5925 5926 5926 5926 5926 5926 5927 5927 5928 5930 5931 5933 5936 5938 5940 5941 5942 5943 5946 5947 5948 5949
5886 5888 5888 5886 5884 5888 5890 5894 5898 5901 5905 5909 5912 5913 5916 5917 5919 5920 5921 5923 5925 5926 5925 5925 5926 5926 5927 5927 5928 5928 5928 5928 5928 5929 5930 5931 5933 5935 5936 5938 5940 5942 5944 5946 5947 5949 5951 5952 5953
5885 5887 5889 5887 5884 5885 5891 5894 5896 5902 5905 5908 5911 5914 5917 5918 5920 5921 5922 5924 5926 5927 5927 5928 5928 5929 5929 5929 5930 5930 5931 5931 5930 5931 5932 5935 5936 5938 5940 5941 5943 5944 5946 5948 5951 5952 5954 5956 5957
5884 5886 5888 5888 5888 5889 5890 5896 5898 5901 5904 5906 5910 5913 5917 5920 5921 5922 5923 5925 5927 5929 5929 5930 5930 5931 5931 5931 5931 5932 5933 5934 5934 5934 5936 5937 5939 5941 5943 5945 5946 5948 5949 5951 5953 5955 5956 5958 5959
5883 5885 5886 5887 5888 5890 5892 5896 5896 5898 5900 5904 5908 5913 5916 5919 5920 5922 5924 5926 5928 5930 5931 5931 5932 5933 5933 5933 5934 5934 5935 5936 5937 5937 5939 5940 5942 5944 5945 5948 5949 5950 5952 5954 5956 5958 5959 5961 5963
5881 5883 5885 5885 5884 5890 5892 5895 5896 5897 5901 5904 5908 5912 5914 5917 5920 5922 5924 5926 5929 5931 5931 5933 5933 5934 5935 5936 5936 5936 5938 5939 5939 5940 5942 5943 5945 5946 5948 5950 5952 5954 5955 5957 5959 5960 5962 5964 5965
5878 5881 5883 5884 5884 5886 5889 5893 5894 5895 5898 5902 5908 5911 5914 5917 5920 5922 5924 5927 5930 5931 5932 5934 5935 5936 5937 5937 5938 5938 5940 5941 5942 5943 5945 5946 5947 5948 5950 5952 5953 5956 5958 5960 5961 5963 5964 5966 5968
5875 5879 5880 5882 5884 5887 5889 5892 5894 5894 5894 5901 5906 5909 5913 5916 5918 5922 5924 5926 5929 5932 5933 5934 5936 5936 5937 5939 5940 5941 5941 5943 5944 5945 5946 5948 5949 5951 5952 5953 5955 5957 5959 5961 5963 5965 5966 5967 5969
5872 5874 5877 5879 5884 5886 5889 5890 5892 5894 5896 5899 5904 5909 5912 5914 5917 5920 5923 5926 5929 5931 5933 5934 5936 5938 5939 5940 5941 5941 5942 5943 5944 5946 5947 5949 5950 5952 5954 5955 5956 5958 5960 5962 5964 5966 5968 5969 5970
5865 5870 5873 5877 5882 5885 5888 5890 5891 5890 5892 5896 5902 5906 5909 5912 5916 5919 5922 5925 5928 5930 5932 5934 5936 5938 5939 5941 5941 5942 5943 5943 5945 5946 5948 5950 5952 5954 5955 5957 5957 5959 5961 5964 5967 5968 5969 5971 5972
5864 5868 5871 5875 5880 5886 5887 5890 5889 5890 5894 5895 5899 5903 5907 5910 5913 5917 5920 5922 5926 5928 5930 5933 5935 5937 5940 5941 5941 5943 5944 5945 5946 5947 5949 5950 5953 5956 5957 5958 5959 5961 5963 5965 5968 5970 5971 5972 5974
5858 5864 5870 5874 5879 5886 5885 5888 5889 5890 5893 5894 5896 5900 5904 5908 5911 5916 5919 5922 5925 5926 5929 5932 5934 5937 5939 5941 5942 5943 5945 5946 5948 5949 5950 5951 5954 5956 5958 5959 5960 5961 5964 5966 5968 5970 5971 5973 5975
5853 5860 5867 5872 5880 5885 5883 5885 5888 5889 5893 5894 5894 5895 5899 5904 5908 5913 5917 5920 5923 5925 5927 5930 5934 5936 5938 5940 5942 5943 5945 5946 5948 5949 5950 5952 5953 5956 5958 5960 5961 5963 5964 5966 5968 5970 5971 5973 5975
5848 5853 5863 5868 5876 5881 5882 5883 5885 5887 5891 5893 5893 5893 5895 5899 5904 5909 5914 5918 5921 5922 5925 5928 5933 5936 5937 5939 5941 5943 5944 5946 5947 5949 5950 5953 5954 5955 5958 5960 5962 5963 5965 5966 5968 5969 5971 5973 5974
5842 5851 5856 5863 5873 5876 5879 5880 5884 5884 5888 5889 5890 5891 5891 5893 5899 5906 5911 5915 5918 5920 5922 5926 5930 5933 5936 5937 5939 5941 5944 5946 5947 5949 5950 5952 5955 5956 5957 5959 5961 5963 5964 5966 5967 5969 5970 5972 5974
5836 5844 5849 5861 5866 5874 5879 5880 5878 5883 5885 5885 5887 5889 5889 5891 5895 5901 5907 5910 5914 5917 5920 5923 5925 5928 5931 5934 5936 5939 5942 5944 5946 5948 5949 5951 5952 5955 5956 5958 5959 5962 5963 5965 5967 5968 5970 5971 5973
5832 5840 5845 5851 5857 5864 5870 5874 5876 5879 5881 5884 5886 5887 5889 5893 5897 5901 5904 5906 5909 5912 5916 5918 5922 5925 5927 5928 5932 5935 5939 5942 5944 5946 5948 5949 5950 5953 5955 5955 5957 5959 5961 5963 5964 5966 5968 5969 5971